[Date Prev][Date Next][Thread Prev][Thread Next] - [Date Index][Thread Index][Author Index]

2 Line ISS Keps 1-24



ISS
1 25544U 98067A   03024.20000000 -.00002963  00000-0 -30119-4 0  6167
2 25544  51.6390  23.5229 0005457  77.1830 308.6871 15.59591257238540


----
Via the sarex mailing list at AMSAT.ORG courtesy of AMSAT-NA.
To unsubscribe, send "unsubscribe sarex" to Majordomo@amsat.org



AMSAT Top AMSAT Home